Munising, MI

11:22 PM EDT on July 26, 2017 (GMT -0400)
Munising

Weather History for KP53 - January, 2013

Change the Weather History Date:

Tuesday, January 15, 2013

  Actual Average (KISQ) Record (KISQ)
Temperature  
Mean Temperature 18 °F -  
Max Temperature 28 °F 23 °F 40 °F (1952)
Min Temperature 7 °F 5 °F -22 °F (1972)
Degree Days  
Heating Degree Days 48    
Moisture  
Dew Point 5 °F    
Average Humidity 56    
Maximum Humidity 70    
Minimum Humidity 41    
Precipitation  
Precipitation 0.00 in - - ()
Sea Level Pressure  
Sea Level Pressure 30.20 in    
Wind  
Wind Speed 8 mph (SSW)    
Max Wind Speed 12 mph    
Max Gust Speed 20 mph    
Averages and records for this station are not official NWS values.
T = Trace of Precipitation, MM = Missing Value Source: NWS Daily Summary

Daily Weather History Graph

Daily Weather History Graph

Search for Another Location

Airport or City:

Trip Planner

Search our weather history database for the weather conditions in past years. The results will help you decide how hot, cold, wet, or windy it might be!

Date:

Astronomy

Jan. 15, 2013 Rise Set
Actual Time 8:25 AM EST 5:27 PM EST
Civil Twilight 7:51 AM EST 6:00 PM EST
Nautical Twilight 7:14 AM EST 6:38 PM EST
Astronomical Twilight 6:38 AM EST 7:14 PM EST
Moon 10:13 AM EST (1/15) 10:36 PM EST (1/15)
Length of Visible Light 10h 08m
Length of Day
9h 01m
Waxing Crescent, 19% of the Moon is Illuminated
Jan 15
Waxing Crescent
Jan 18
First Quarter
Jan 26
Full
Feb 3
Last Quarter
Feb 10
New

Hourly Weather History & Observations

Time (EST) Temp. Windchill Dew Point Humidity Pressure Visibility Wind Dir Wind Speed Gust Speed Precip Events Conditions
12:56 AM 12.0 °F 1.5 °F -0.0 °F 59% 30.33 in - WSW 6.9 mph - N/A   Unknown
1:56 AM 10.9 °F 1.4 °F -0.9 °F 59% 30.34 in - WSW 5.8 mph - N/A   Unknown
2:56 AM 10.0 °F -2.9 °F -0.9 °F 61% 30.35 in - SW 9.2 mph - N/A   Unknown
3:56 AM 10.0 °F -2.9 °F -0.9 °F 61% 30.35 in - SW 9.2 mph - N/A   Unknown
4:56 AM 10.0 °F - -0.9 °F 61% 30.35 in - Calm Calm - N/A   Unknown
5:56 AM 10.0 °F -1.9 °F -0.0 °F 64% 30.33 in - SSW 8.1 mph - N/A   Unknown
6:56 AM 9.0 °F -5.1 °F -0.0 °F 67% 30.32 in - SSW 10.4 mph - N/A   Unknown
7:56 AM 8.1 °F -4.3 °F -0.9 °F 67% 30.32 in - SSW 8.1 mph 16.1 mph N/A   Unknown
8:56 AM 7.0 °F -7.5 °F -0.9 °F 70% 30.31 in - South 10.4 mph - N/A   Unknown
9:56 AM 12.0 °F -0.4 °F -0.9 °F 56% 30.29 in - SSW 9.2 mph - N/A   Unknown
10:56 AM 16.0 °F 2.9 °F -0.0 °F 49% - - South 11.5 mph 18.4 mph N/A   Unknown
11:56 AM 19.9 °F - 5.0 °F 52% - - North - - N/A   Unknown
12:56 PM 24.1 °F 13.1 °F 8.1 °F 51% 30.19 in - SSW 11.5 mph 19.6 mph N/A   Unknown
1:56 PM 26.1 °F 16.8 °F 10.0 °F 51% 30.17 in - SW 9.2 mph 18.4 mph N/A   Unknown
2:56 PM 28.0 °F 18.6 °F 8.1 °F 43% 30.15 in - SW 10.4 mph 18.4 mph N/A   Unknown
3:56 PM 28.0 °F 20.8 °F 7.0 °F 41% 30.14 in - Variable 6.9 mph - N/A   Unknown
4:56 PM 27.0 °F 23.0 °F 8.1 °F 45% 30.14 in - Variable 3.5 mph - N/A   Unknown
5:56 PM 26.1 °F 20.5 °F 8.1 °F 47% 30.12 in - SSW 4.6 mph - N/A   Unknown
6:56 PM 23.0 °F 14.7 °F 9.0 °F 55% 30.10 in - South 6.9 mph - N/A   Unknown
7:56 PM 23.0 °F 14.7 °F 10.0 °F 58% 30.08 in - South 6.9 mph - N/A   Unknown
8:56 PM 24.1 °F 14.4 °F 10.0 °F 55% 30.06 in - SSW 9.2 mph - N/A   Unknown
9:56 PM 24.1 °F 16.0 °F 10.9 °F 57% 30.04 in - SSW 6.9 mph - N/A   Unknown
10:56 PM 24.1 °F 15.2 °F 10.9 °F 57% 29.99 in - SSW 8.1 mph - N/A   Unknown
11:56 PM 24.1 °F 16.0 °F 10.9 °F 57% 29.96 in - SSW 6.9 mph - N/A   Unknown